Helicity
236 229 241 225 209 207 241 308 356 302 263 201 190 181 158 129 96 65 40 75 77 71 93 106 98 96 104 110 119 117 111 120 134 133 129 135 124 131
329 303 307 288 271 263 269 313 287 220 247 215 219 189 158 121 110 89 63 83 98 97 111 102 97 115 118 131 124 130 134 143 154 141 131 140 129 104
332 322 320 301 305 307 322 305 289 234 237 229 249 212 165 130 121 87 92 102 82 98 105 106 116 121 139 121 130 143 152 162 147 134 138 117 92 76
284 306 324 317 341 315 306 305 282 248 218 277 220 177 150 151 126 119 115 115 111 108 119 110 124 151 138 140 139 144 148 142 134 130 107 87 71 77
302 269 273 275 297 279 286 264 260 292 232 164 147 150 158 156 140 153 142 127 108 87 104 143 140 134 135 140 130 127 124 125 117 104 84 80 82 76
273 204 232 234 201 213 194 192 171 157 131 120 148 178 152 142 146 144 147 118 106 111 116 114 108 126 144 138 131 133 133 124 120 101 96 111 90 62
345 277 213 159 159 158 158 142 141 112 150 121 227 139 127 139 129 121 113 105 103 91 110 119 128 145 140 131 125 108 113 109 114 122 124 94 81 76
490 578 496 433 284 200 205 163 143 168 208 153 125 113 134 121 113 112 98 96 83 74 94 128 122 162 141 129 96 95 111 122 135 129 107 110 95 81
560 473 393 271 234 218 210 215 222 128 86 98 109 122 120 111 103 97 84 79 82 98 122 123 143 147 141 122 81 78 103 118 124 108 105 102 98 81
423 318 247 232 187 267 242 185 160 128 131 146 143 120 116 90 83 91 96 92 97 100 124 136 134 151 152 147 35 51 75 94 87 88 87 87 77 74
337 274 213 243 206 106 144 159 142 158 153 154 156 156 146 153 128 111 109 98 93 120 141 161 148 158 130 70 46 41 51 57 64 67 71 68 66 65
266 211 204 140 107 103 105 119 123 120 127 139 137 145 152 139 128 113 113 113 116 116 90 165 149 146 129 92 113 93 104 50 54 54 57 61 59 78
253 238 162 117 104 97 116 117 118 126 143 132 128 128 120 116 121 127 124 126 130 130 129 192 186 155 159 173 140 95 57 100 101 78 43 38 39 56
222 186 117 89 107 106 111 109 121 157 141 132 118 107 104 109 123 131 127 113 108 128 127 154 193 186 180 144 120 86 81 82 93 78 88 72 45 45
235 129 92 111 111 110 122 162 151 145 137 129 114 102 101 103 112 119 125 135 121 122 133 155 174 162 156 135 130 91 78 76 74 104 120 122 123 119
147 104 130 156 139 157 185 176 158 132 123 112 107 109 100 105 120 125 142 157 142 140 145 145 158 145 126 115 114 116 118 128 153 167 155 134 120 132
219 230 207 202 184 175 170 151 140 135 124 108 106 104 99 106 121 147 150 154 147 142 124 137 130 116 128 115 119 141 150 156 151 161 119 105 105 126
226 203 184 164 148 138 136 124 116 120 111 107 107 102 105 117 124 139 156 155 128 111 94 114 99 68 82 83 70 130 129 146 148 121 121 113 97 110
208 191 177 153 135 126 119 118 118 103 101 104 107 112 115 115 132 140 138 128 115 105 110 106 130 131 85 74 97 59 120 142 128 127 117 126 122 123
205 204 187 149 126 123 124 124 114 114 114 111 111 114 113 110 119 122 120 115 101 92 86 87 113 134 121 110 107 119 59 123 126 137 124 119 113 61
218 203 150 127 121 121 117 110 104 99 93 89 97 103 108 107 110 108 105 80 68 102 67 72 96 33 115 140 125 124 113 71 82 109 106 107 100 91
194 157 118 117 117 111 107 97 96 95 83 84 86 88 97 97 97 93 109 98 91 93 88 99 113 138 142 152 129 119 141 121 97 44 44 61 124 136
151 118 108 112 113 98 90 92 87 69 76 81 81 86 98 105 92 95 93 92 93 97 95 95 108 123 142 162 98 127 114 124 100 84 92 55 47 39
Wind_Speed
33 35 39 40 40 37 32 27 31 41 41 37 38 32 33 34 40 46 50 54 57 57 58 61 66 66 69 71 73 77 77 78 79 82 80 82 84 87
32 30 31 32 33 33 29 30 33 39 41 41 39 34 38 38 40 45 49 53 57 62 64 69 68 67 68 70 76 78 80 80 82 83 82 83 87 88
31 29 27 26 28 28 27 30 33 37 36 38 38 37 39 42 45 48 51 53 58 62 68 71 70 70 70 77 77 79 79 81 84 81 83 86 88 89
30 28 26 23 22 24 27 29 29 29 33 34 32 34 43 39 47 51 48 52 59 64 69 68 68 75 77 76 77 77 80 83 81 85 88 88 87 88
30 28 27 24 23 21 25 26 30 32 30 31 34 35 38 42 41 45 50 55 61 63 65 64 73 75 77 77 78 81 83 83 87 87 86 86 85 88
29 19 24 22 23 21 24 27 28 29 30 27 35 38 42 43 45 47 53 56 62 63 55 63 71 74 77 79 80 83 83 86 87 86 82 83 87 88
23 25 22 19 19 22 23 25 27 31 36 35 42 43 45 44 44 49 53 58 62 50 57 68 72 75 76 77 80 83 86 84 82 78 80 84 84 87
27 21 17 17 20 19 20 22 24 29 33 38 37 36 44 42 45 50 56 62 63 50 68 74 73 79 76 77 83 83 80 76 73 78 81 81 86 88
22 20 14 18 16 18 18 21 24 25 26 30 34 39 40 43 47 52 55 58 63 66 70 79 74 78 77 81 79 73 69 66 77 78 79 81 85 85
13 19 16 11 18 18 19 17 22 24 26 30 31 35 39 45 46 50 54 59 64 65 68 79 73 84 83 76 65 61 61 74 75 77 79 83 83 83
13 11 10 9 8 12 14 16 22 25 28 30 34 38 41 44 47 49 59 67 72 71 65 76 81 92 84 73 56 56 72 72 76 78 81 80 79 84
14 11 7 10 9 13 12 15 22 24 29 34 38 40 41 44 49 51 55 66 72 76 62 85 81 84 89 66 59 67 69 72 77 79 77 75 80 79
14 11 11 5 7 11 15 15 18 22 29 35 37 40 44 49 52 54 55 58 66 69 65 73 76 79 71 77 67 67 68 75 75 74 70 73 76 77
13 9 2 5 6 13 17 19 19 22 29 34 39 44 49 54 57 59 57 56 57 60 62 63 69 70 72 75 73 69 74 70 70 67 69 69 71 70
8 5 3 3 10 13 17 18 22 25 29 35 39 45 51 54 57 56 58 60 61 61 59 59 62 64 63 65 69 75 78 71 67 67 72 68 69 68
7 4 3 8 13 15 19 22 24 26 31 36 43 46 50 54 58 60 66 69 69 66 60 55 61 61 64 62 64 67 64 69 70 67 67 64 61 57
6 6 9 12 15 18 20 23 26 28 33 38 43 45 50 55 61 64 66 69 73 73 68 63 62 60 58 59 65 60 63 65 58 62 66 62 60 55
8 9 11 12 13 15 19 23 27 31 36 39 42 45 53 59 63 64 66 69 72 69 67 66 67 68 63 57 52 62 61 58 57 62 61 60 60 58
12 13 12 12 13 17 21 26 31 33 36 40 44 50 56 60 64 66 68 69 69 66 65 64 65 67 74 76 67 61 66 57 58 61 61 57 56 61
15 13 12 12 15 19 23 28 31 35 39 42 48 53 58 61 64 66 67 67 67 65 65 64 63 63 67 72 75 78 63 60 61 60 59 55 50 49
13 9 7 11 16 21 24 29 33 36 40 46 51 54 57 60 63 63 64 65 66 65 68 67 62 62 63 64 67 72 65 59 55 55 55 52 58 65
12 9 9 12 17 22 26 29 33 38 41 48 50 53 56 58 60 61 62 63 63 62 62 62 61 63 65 65 66 67 66 65 59 53 45 34 40 52
10 10 12 16 20 24 28 31 35 39 42 46 49 52 55 58 57 58 60 61 61 62 63 65 63 64 64 60 63 65 62 60 60 61 56 45 41 33
Wind_Direction
271 273 277 281 283 285 283 271 283 292 294 300 307 312 320 329 333 334 336 337 338 338 337 340 336 336 337 337 336 335 334 334 334 333 333 332 331 330
271 271 277 282 286 287 284 285 290 296 297 301 306 309 314 321 330 331 333 336 337 332 333 334 335 336 336 336 334 333 332 332 333 332 331 331 329 328
271 270 276 283 286 290 291 288 292 298 299 308 308 310 313 317 325 329 330 333 331 332 332 332 335 335 336 333 333 333 332 332 331 331 330 329 328 327
270 274 277 282 289 296 297 298 304 309 305 302 309 312 313 326 325 324 329 331 329 331 331 334 336 333 333 335 334 334 332 331 330 329 327 326 326 326
269 274 279 283 291 296 298 303 309 314 316 306 311 319 321 326 328 330 329 329 330 331 334 335 334 333 334 335 335 333 331 330 329 328 327 326 326 325
270 269 274 284 288 297 303 306 308 315 316 319 318 319 320 322 327 329 328 331 331 333 337 336 335 335 335 334 333 333 332 329 328 328 328 328 326 325
272 282 280 283 291 300 305 307 312 317 312 316 316 318 316 324 329 330 330 331 332 337 337 335 336 336 336 336 334 332 330 330 330 330 329 328 326 325
262 270 281 289 296 310 318 318 322 317 315 316 320 322 318 328 330 331 330 331 332 340 335 333 336 334 336 337 334 333 332 333 333 331 329 327 325 325
251 259 272 284 299 307 318 328 329 332 329 326 322 324 327 329 331 330 332 332 331 333 334 331 336 336 337 336 335 335 336 336 334 331 329 328 327 326
229 261 279 297 296 305 315 329 328 333 333 333 335 332 332 330 330 333 334 333 333 335 337 331 338 335 337 338 339 339 339 335 333 332 331 329 328 327
240 261 280 288 305 314 323 324 324 330 338 339 337 336 335 336 337 337 333 333 333 335 340 336 337 334 337 339 343 343 338 336 335 333 331 331 330 328
247 247 247 287 297 309 321 325 316 326 327 329 333 337 341 341 341 341 339 335 335 335 342 337 338 341 337 341 341 338 339 338 337 335 334 334 332 331
241 240 270 277 316 323 316 330 332 332 329 329 333 337 338 338 339 341 342 340 337 336 340 341 338 338 339 336 339 339 340 339 339 338 338 337 335 334
203 244 195 289 324 315 323 327 332 333 329 330 331 334 335 336 338 340 341 343 342 338 339 340 337 338 338 337 337 340 339 340 340 340 339 338 338 337
226 219 178 317 318 327 329 334 333 331 330 331 333 336 337 337 339 342 344 346 344 342 344 343 341 341 341 338 336 337 338 342 341 341 339 340 339 339
168 174 288 311 317 326 330 332 336 337 334 334 336 339 338 339 339 342 342 343 342 343 346 348 346 346 342 339 338 337 341 340 340 341 341 341 342 343
190 271 293 302 308 315 326 332 335 338 338 339 340 341 339 339 341 343 343 343 342 342 344 347 348 347 343 341 338 338 339 340 342 342 342 342 342 344
257 271 282 291 300 316 324 330 334 337 339 341 341 340 339 340 341 343 344 344 344 346 346 346 346 346 346 346 344 340 341 342 342 343 343 342 341 344
273 277 283 292 303 315 322 328 332 338 342 341 340 340 341 341 342 342 344 345 346 347 347 347 346 345 341 340 343 345 341 341 342 342 343 342 339 339
279 280 287 298 309 315 323 330 336 338 340 342 342 341 341 342 343 344 346 347 347 347 346 347 346 345 342 340 339 337 345 343 343 341 342 342 340 339
281 288 300 310 314 319 327 331 336 340 341 342 342 343 344 345 345 347 348 347 347 346 345 344 345 344 342 343 343 341 346 348 345 343 343 343 342 339
280 291 309 320 319 322 328 334 337 338 342 342 343 345 346 347 347 347 347 346 346 345 343 344 345 346 346 346 344 344 346 349 350 350 349 344 345 344
284 300 313 318 321 326 330 334 337 339 342 343 345 347 348 348 348 348 347 346 345 344 344 344 347 348 347 348 347 347 349 352 355 355 354 358 356 350